DW7857 Weather Reports


time (UTC)temp
C
wind
direction
speed
KPH
gust
KPH
rain 1hr
cm
rain 24hr
cm
rain mn
cm
humidity
%
barometer
mb
20190123033019 2 314 1.6 6.4 0.00 0.15 0.00 84 994.7
20190123032019 2 295 1.6 8.0 0.00 0.15 0.00 85 994.7
20190123031019 2 338 8.0 17.7 0.00 0.15 0.00 85 994.7
20190123030019 2 311 4.8 9.7 0.00 0.15 0.00 85 994.3
20190123025018 2 0 0.0 0.0 0.00 0.15 0.00 85 994.4
20190123024019 1 0 0.0 0.0 0.00 0.15 0.00 84 994.7
20190123023019 1 343 0.0 3.2 0.00 0.15 0.00 84 994.4
20190123022018 1 0 0.0 0.0 0.00 0.15 0.00 84 994.6
20190123021018 1 0 0.0 0.0 0.00 0.15 0.00 84 994.7
20190123020019 1 284 0.0 4.8 0.00 0.15 0.00 84 994.6
20190123015018 0 302 1.6 6.4 0.00 0.15 0.00 84 994.4
20190123014015 0 0 0.0 0.0 0.00 0.15 0.00 83 994.2
20190123013015 0 0 0.0 0.0 0.00 0.15 0.00 83 994.0
20190123012015 0 0 0.0 0.0 0.00 0.15 0.00 83 994.7
20190123011015 0 0 0.0 0.0 0.00 0.15 0.00 83 994.5
20190123010015 0 0 0.0 0.0 0.00 0.15 0.00 83 994.7
20190123005015 0 0 0.0 0.0 0.00 0.15 0.00 83 994.5
20190123004016 0 0 0.0 0.0 0.00 0.15 0.00 83 994.3
20190123003031 0 0 0.0 0.0 0.00 0.15 0.00 83 994.4
20190123000018 0 0 0.0 0.0 0.00 0.15 0.00 83 994.3
20190122235016 0 0 0.0 0.0 0.00 0.15 0.15 82 994.3
20190122234016 0 0 0.0 0.0 0.00 0.15 0.15 82 994.1
20190122233016 0 0 0.0 0.0 0.00 0.23 0.15 82 994.2
20190122232016 0 0 0.0 0.0 0.00 0.23 0.15 82 994.5
20190122231016 0 0 0.0 0.0 0.00 0.33 0.15 82 994.4
20190122230016 0 0 0.0 0.0 0.00 0.38 0.15 82 994.3
20190122225015 0 0 0.0 0.0 0.00 0.46 0.15 82 994.4
20190122224016 0 0 0.0 0.0 0.00 0.48 0.15 82 994.3
20190122223015 0 0 0.0 0.0 0.00 0.53 0.15 82 994.3
20190122222012 0 0 0.0 0.0 0.00 0.56 0.15 82 994.4
20190122221012 0 0 0.0 0.0 0.00 0.61 0.15 82 994.7
20190122220012 0 0 0.0 0.0 0.00 0.61 0.15 81 994.8
20190122215012 1 0 0.0 0.0 0.00 0.64 0.15 81 994.8
20190122214012 1 0 0.0 0.0 0.00 0.64 0.15 82 994.8
20190122213019 1 0 0.0 0.0 0.00 0.64 0.15 81 994.8
20190122212018 1 0 0.0 0.0 0.00 0.64 0.15 81 994.9
20190122211018 1 0 0.0 0.0 0.00 0.64 0.15 81 994.9
20190122210018 1 0 0.0 0.0 0.00 0.64 0.15 81 995.0
20190122205018 1 0 0.0 0.0 0.00 0.64 0.15 81 994.9
20190122204018 1 0 0.0 0.0 0.00 0.64 0.15 81 994.8
20190122203018 1 0 0.0 0.0 0.00 0.64 0.15 81 995.1
20190122202021 2 0 0.0 0.0 0.00 0.64 0.15 81 995.1
20190122201018 2 0 0.0 0.0 0.00 0.64 0.15 81 995.0
20190122200018 2 0 0.0 0.0 0.00 0.64 0.15 80 995.0
20190122195018 2 0 0.0 0.0 0.00 0.64 0.15 80 995.1
20190122194018 2 0 0.0 0.0 0.00 0.64 0.15 80 995.1
20190122193018 2 0 0.0 0.0 0.00 0.64 0.15 80 994.9
20190122192018 2 0 0.0 0.0 0.00 0.64 0.15 80 994.8
20190122191018 2 0 0.0 0.0 0.00 0.64 0.15 79 994.9
20190122190018 2 0 0.0 0.0 0.00 0.64 0.15 79 995.0
20190122185018 3 0 0.0 0.0 0.00 0.64 0.15 78 994.9
20190122184018 3 0 0.0 0.0 0.00 0.64 0.15 78 995.0
20190122183019 3 0 0.0 0.0 0.00 0.64 0.15 77 995.1
20190122182018 3 0 0.0 0.0 0.00 0.64 0.15 76 995.1
20190122181019 3 0 0.0 0.0 0.00 0.64 0.15 76 995.1
20190122180019 4 308 1.6 3.2 0.00 0.64 0.15 76 995.3
20190122175018 3 301 4.8 6.4 0.00 0.64 0.15 76 995.2
20190122174019 3 310 6.4 9.7 0.00 0.64 0.15 76 995.3
20190122173019 3 302 6.4 6.4 0.00 0.64 0.15 76 995.4
20190122172019 4 312 8.0 9.7 0.00 0.64 0.15 76 995.3
20190122171019 4 295 8.0 11.3 0.00 0.64 0.15 76 995.5
20190122170019 4 323 6.4 8.0 0.00 0.64 0.15 76 995.5
20190122165019 4 301 9.7 11.3 0.00 0.64 0.15 75 995.5
20190122164019 4 308 12.9 17.7 0.00 0.64 0.15 75 995.3
20190122163019 5 336 9.7 12.9 0.00 0.64 0.15 75 995.4
20190122162019 5 298 11.3 19.3 0.00 0.64 0.15 75 995.1
20190122161019 5 314 14.5 17.7 0.00 0.64 0.15 77 995.3
20190122160019 5 314 9.7 9.7 0.00 0.64 0.15 76 995.1
20190122155019 5 305 8.0 11.3 0.00 0.64 0.15 76 995.1
20190122154019 5 288 8.0 11.3 0.00 0.64 0.15 77 995.0
20190122153019 5 323 8.0 11.3 0.00 0.64 0.15 78 995.3
20190122152019 5 288 11.3 14.5 0.00 0.64 0.15 79 995.7
20190122151019 5 317 9.7 17.7 0.03 0.64 0.15 80 995.5
20190122150019 5 304 9.7 17.7 0.05 0.64 0.15 80 995.5
20190122145019 5 314 6.4 12.9 0.05 0.64 0.15 80 995.4
20190122144019 5 286 0.0 4.8 0.10 0.64 0.15 81 995.5
20190122143019 5 265 4.8 6.4 0.10 0.64 0.15 81 996.0
20190122142019 5 251 4.8 6.4 0.10 0.64 0.15 80 995.9
20190122141019 4 292 6.4 8.0 0.10 0.61 0.13 80 996.2
20190122140019 4 310 11.3 11.3 0.05 0.56 0.10 80 996.3
20190122135019 4 317 9.7 14.5 0.05 0.56 0.10 80 996.7
20190122134019 5 240 6.4 11.3 0.03 0.53 0.05 80 996.6
20190122133020 5 255 8.0 11.3 0.03 0.53 0.05 80 996.7
20190122132019 5 224 9.7 14.5 0.03 0.53 0.05 80 996.8
20190122131019 5 206 6.4 9.7 0.00 0.51 0.03 80 997.2
20190122130019 5 234 6.4 11.3 0.00 0.51 0.03 79 997.3
20190122125019 5 255 6.4 9.7 0.00 0.51 0.03 79 997.6
20190122124020 5 261 11.3 17.7 0.00 0.51 0.03 78 997.8
20190122123020 5 245 9.7 12.9 0.00 0.51 0.03 78 998.0
20190122122019 5 232 4.8 12.9 0.00 0.51 0.03 77 998.2
20190122121019 5 270 0.0 4.8 0.00 0.51 0.03 78 998.3
20190122120019 5 258 1.6 9.7 0.00 0.53 0.03 78 999.0
20190122115019 4 237 1.6 8.0 0.00 0.53 0.03 79 999.0
20190122114019 4 181 0.0 6.4 0.00 0.53 0.03 80 999.2
20190122113019 4 222 1.6 9.7 0.00 0.53 0.03 80 999.1
20190122112019 4 204 0.0 6.4 0.00 0.53 0.03 80 999.5
20190122111019 3 0 0.0 0.0 0.00 0.53 0.03 80 999.5
20190122110019 3 0 0.0 0.0 0.00 0.53 0.03 80 999.7
20190122105019 3 0 0.0 0.0 0.00 0.53 0.03 80 999.6
20190122104019 3 0 0.0 0.0 0.03 0.53 0.03 80 999.8
20190122103019 3 0 0.0 0.0 0.03 0.53 0.03 80 999.8
20190122102019 3 171 1.6 6.4 0.03 0.53 0.03 80 999.8
20190122101019 3 188 0.0 3.2 0.03 0.53 0.03 80 999.9
20190122100019 3 0 0.0 0.0 0.03 0.53 0.03 80 1000.0
20190122095019 3 0 0.0 0.0 0.03 0.53 0.03 80 1000.2
20190122094019 3 0 0.0 0.0 0.00 0.51 0.00 80 1000.3
20190122093020 3 0 0.0 0.0 0.00 0.51 0.00 81 1000.3
20190122092019 3 0 0.0 0.0 0.00 0.51 0.00 81 1000.5
20190122091019 3 0 0.0 0.0 0.00 0.51 0.00 81 1000.6
20190122090019 2 0 0.0 0.0 0.00 0.51 0.00 81 1000.7
20190122085019 2 0 0.0 0.0 0.00 0.51 0.00 80 1000.8
20190122084019 2 0 0.0 0.0 0.00 0.51 0.00 80 1000.8
20190122083019 2 270 0.0 4.8 0.00 0.51 0.00 80 1000.9
20190122082019 2 0 0.0 0.0 0.00 0.51 0.00 80 1000.9
20190122081019 2 0 0.0 0.0 0.00 0.51 0.00 80 1000.8
20190122080019 2 314 1.6 6.4 0.00 0.51 0.00 80 1001.0
20190122075019 2 0 0.0 0.0 0.00 0.51 0.00 80 1001.1
20190122074019 2 343 0.0 8.0 0.00 0.51 0.00 80 1001.1
20190122073019 2 277 3.2 8.0 0.00 0.51 0.00 80 1001.3
20190122072019 2 284 3.2 9.7 0.00 0.51 0.00 80 1001.2
20190122071019 2 260 9.7 16.1 0.00 0.51 0.00 80 1001.3
20190122070019 2 230 4.8 12.9 0.00 0.51 0.00 80 1001.7
20190122065019 2 321 3.2 8.0 0.00 0.51 0.00 80 1001.5
20190122064019 2 234 4.8 12.9 0.00 0.51 0.00 80 1001.5
20190122063019 2 314 1.6 6.4 0.00 0.51 0.00 80 1001.3
20190122062019 2 0 0.0 0.0 0.00 0.51 0.00 80 1001.4
20190122061019 2 207 3.2 8.0 0.00 0.51 0.00 80 1001.4
20190122060019 2 0 0.0 0.0 0.00 0.51 0.00 80 1001.4
20190122055019 2 0 0.0 0.0 0.00 0.51 0.00 80 1001.4
20190122054019 2 236 1.6 6.4 0.00 0.51 0.00 80 1001.7
20190122053020 2 203 3.2 9.7 0.00 0.51 0.00 80 1001.8
20190122052019 2 267 3.2 8.0 0.00 0.51 0.00 80 1001.7
20190122051019 2 285 4.8 9.7 0.00 0.51 0.00 80 1002.0
20190122050019 2 284 1.6 8.0 0.00 0.51 0.00 80 1001.7
20190122045019 3 0 0.0 0.0 0.00 0.51 0.00 79 1001.8
20190122044019 2 301 1.6 6.4 0.00 0.51 0.00 79 1001.7
20190122043019 2 0 0.0 0.0 0.00 0.51 0.00 78 1001.7
20190122042020 3 0 0.0 0.0 0.00 0.51 0.00 77 1001.7
20190122041019 3 290 0.0 6.4 0.00 0.51 0.00 77 1001.6
20190122040019 3 334 6.4 11.3 0.00 0.51 0.00 76 1001.7
20190122035019 3 296 11.3 17.7 0.00 0.51 0.00 77 1001.8
20190122034019 3 289 4.8 16.1 0.00 0.51 0.00 76 1002.0